Reflectivity
-20 -20 -20 -20 -20 -20 -20 -20 -20 -20 -20 -20 -20 -20 -20 -19 -20 -20 -20 -19 -20 -20 -19 -20 10 16 18 29 28 31 18 16 17 -5 20 12 2 -10 -11 -20 -20 -11 -20 2 -17 -4 -20 -20 -20
-20 -20 -20 -20 -20 -20 -20 -20 -20 -20 -20 -20 -20 -20 -20 -20 -20 -20 -20 -20 -9 -20 -20 -20 -20 -3 18 13 13 22 16 30 24 12 11 -11 -14 4 19 19 -8 9 -20 -3 -16 -16 0 -20 -20
-20 -20 -20 -20 -20 -20 -20 -20 -20 -20 -20 -20 -20 -20 -20 -20 -20 -20 -20 -20 -20 -20 -20 -20 -20 -20 -20 9 11 9 14 18 22 27 15 14 13 -11 -6 7 -4 -12 -20 -20 3 -2 -12 -20 -15
-20 -20 -20 -20 -20 -20 -20 -20 -20 -20 -20 -20 -20 -20 -20 -20 -20 -20 -20 -20 -20 -20 -20 -20 -20 -20 -17 -7 7 2 3 19 24 24 17 31 18 11 -15 30 9 3 -13 -5 -20 -19 -20 -20 -20
-20 -20 -20 -20 -20 -20 -20 -20 -20 -20 -20 -20 -20 -20 -20 -20 -20 -20 -20 -20 -20 -20 -20 -20 -20 -20 -10 2 -20 -20 -20 4 11 9 15 15 28 23 15 1 7 -8 0 7 21 -2 -17 -20 -14
-20 -20 -20 -20 -20 -20 -20 -20 -20 -20 -20 -20 -20 -20 -20 -20 -20 -20 -20 -20 -20 -20 -20 -20 -20 -20 -20 -20 -20 -20 -20 -14 -20 -5 6 10 16 16 24 17 14 6 -4 -8 -1 21 1 -9 -20
-20 -20 -20 -20 -20 -20 -20 -20 -20 -20 -20 -20 -20 -20 -20 -20 -20 -20 -20 -20 -20 -20 -20 -20 -20 -20 -20 -20 -20 -20 -20 -20 -20 -20 -8 7 12 9 -4 -10 14 13 15 11 11 10 22 12 -20
-20 -20 -20 -20 -20 -20 -20 -20 -20 -20 -20 -20 -20 -20 -20 -20 -20 -20 -20 -20 -20 -20 -20 -20 -20 -20 -20 -20 -20 -20 -20 -20 -20 -20 -20 -15 7 10 12 4 -12 6 13 8 3 3 18 20 -19
-20 -20 -20 -20 -20 -20 -20 -20 -20 -20 -20 -20 -20 -20 -20 -20 -20 -20 -20 -20 -20 -20 -20 -20 -20 -20 -20 -20 -20 -20 -20 -20 -20 -20 -20 -20 -20 -20 -11 11 7 6 4 0 10 -5 8 6 -19
-20 -20 -20 -20 -20 -20 -20 -20 -20 -20 -20 -20 -20 -20 -20 -20 -20 -20 -20 -20 -20 -20 -20 -20 -20 -20 -20 -20 -20 -20 -20 -20 -20 -20 -20 -20 -20 -20 -20 -18 -7 3 8 10 6 -17 -20 -11 11
-20 -20 -20 -20 -20 -20 -20 -20 -20 -20 -20 -20 -20 -20 -20 -20 -20 -20 -20 -20 -20 -20 -20 -20 -20 -20 -20 -20 -20 -20 -20 -20 -20 -20 -20 -20 -20 -20 -20 -20 -20 -19 11 -16 7 -16 -20 -2 13
-20 -20 -20 -20 -20 -20 -20 -20 -20 -20 -20 -20 -20 -20 -20 -20 -20 -20 -20 -20 -20 -20 -20 -20 -20 -20 -20 -20 -20 -20 -20 -20 -20 -20 -20 -20 -20 -20 -20 -20 -20 -20 -20 -20 -20 14 -7 -20 -7
-20 -20 -20 -20 -20 -20 -20 -20 -20 -20 -20 -20 -20 -20 -20 -20 -20 -20 -20 -20 -20 -20 -20 -20 -20 -20 -20 -20 -20 -20 -20 -20 -20 -20 -20 -20 -20 -20 -20 -20 -20 -20 -12 -20 -20 -19 6 -20 -20
-20 -20 -20 -20 -20 -20 -20 -20 -20 -20 -20 -20 -20 -20 -20 -20 -20 -20 -20 -20 -20 -20 -20 -20 -20 -20 -20 -20 -20 -20 -20 -20 -20 -20 -20 -20 -20 -20 -20 -20 -20 -20 -20 -20 -13 -3 -18 -1 -20
-20 -20 -20 -20 -20 -20 -20 -20 -20 -20 -20 -20 -20 -20 -20 -20 -20 -20 -20 -20 -20 -20 -20 -20 -20 -20 -20 -20 -20 -20 -20 -20 -20 -20 -20 -20 -20 -20 -20 -20 -20 -20 -20 -20 -20 1 -11 -20 -19
-20 -20 -20 -20 -20 -20 -20 -20 -20 -20 -20 -20 -20 -20 -20 -20 -20 -20 -20 -20 -20 -20 -20 -20 -20 -20 -20 -20 -20 -20 -20 -20 -20 -20 -20 -20 -20 -20 -20 -20 -20 -20 -20 -11 -6 -14 11 -20 -20
-20 -20 -20 -20 -20 -20 -20 -20 -20 -20 -20 -20 -20 -20 -20 -20 -20 -20 -20 -20 -20 -20 -20 -20 -20 -20 -20 -20 -20 -20 -20 -20 -20 -20 -20 -20 -20 -20 -20 -20 -20 -20 -16 -19 -20 -20 -11 -2 -20
-20 -20 -20 -20 -20 -20 -20 -20 -20 -20 -20 -20 -20 -20 -20 -20 -20 -20 -20 -20 -20 -20 -20 -20 -20 -20 -20 -20 -20 -20 -20 -20 -20 -20 -20 -20 -20 -20 -20 -20 -20 -20 -20 -20 -20 -20 -16 -20 -20
-20 -20 -20 -20 -20 -20 -20 -20 -20 -20 -20 -20 -20 -20 -20 -20 -20 -20 -20 -20 -20 -20 -20 -20 -20 -20 -20 -20 -20 -20 -20 -20 -20 -20 -20 -20 -20 -20 -20 -20 -20 -20 -20 -20 -20 -10 -5 -20 -9
-20 -20 -20 -20 -20 -20 -20 -20 -20 -20 -20 -20 -20 -20 -20 -20 -20 -20 -20 -20 -20 -20 -20 -20 -20 -20 -20 -20 -20 -20 -20 -20 -20 -20 -20 -20 -20 -20 -20 -20 -20 -20 -20 -20 -20 -20 -19 -20 -20
-20 -20 -20 -20 -20 -20 -20 -20 -20 -20 -20 -20 -20 -20 -20 -20 -20 -20 -20 -20 -20 -20 -20 -20 -20 -20 -20 -20 -20 -20 -20 -20 -20 -20 -20 -20 -20 -20 -20 -20 -20 -20 -20 -20 -20 -19 -19 3 -20
-20 -20 -20 -20 -20 -20 -20 -20 -20 -20 -20 -20 -20 -20 -20 -20 -20 -20 -20 -20 -20 -20 -20 -20 -20 -20 -20 -20 -20 -20 -20 -20 -20 -20 -20 -20 -20 -20 -20 -20 -20 -20 -20 -20 -20 -20 -19 -2 2
-20 -20 -20 -20 -20 -20 -20 -20 -20 -20 -20 -20 -20 -20 -20 -20 -20 -20 -20 -20 -20 -20 -20 -20 -20 -20 -20 -20 -20 -20 -20 -20 -20 -20 -20 -20 -20 -20 -20 -20 -20 -20 -20 -20 -20 -20 -20 -12 -20
-20 -20 -20 -20 -20 -20 -20 -20 -20 -20 -20 -20 -20 -20 -20 -20 -20 -20 -20 -20 -20 -20 -20 -20 -20 -20 -20 -20 -20 -20 -20 -20 -20 -20 -20 -20 -20 -20 -20 -20 -20 -20 -20 -20 -20 -20 -20 -20 -20
-20 -20 -20 -20 -20 -20 -20 -20 -20 -20 -20 -20 -20 -20 -20 -20 -20 -20 -20 -20 -20 -20 -20 -20 -20 -20 -20 -20 -20 -20 -20 -20 -20 -20 -20 -20 -20 -20 -20 -20 -20 -20 -20 -20 -20 -20 -20 -20 -20
-20 -20 -20 -20 -20 -20 -20 -20 -20 -20 -20 -20 -20 -20 -20 -20 -20 -20 -20 -20 -20 -20 -20 -20 -20 -20 -20 -20 -20 -20 -20 -20 -20 -20 -20 -20 -20 -20 -20 -20 -20 -20 -20 -20 -20 -20 -20 -20 -20
-20 -20 -20 -20 -20 -20 -20 -20 -20 -20 -20 -20 -20 -20 -20 -20 -20 -20 -20 -20 -20 -20 -20 -20 -20 -20 -20 -20 -20 -20 -20 -20 -20 -20 -20 -20 -20 -20 -20 -20 -20 -20 -20 -20 -20 -20 -20 -20 -18
-20 -20 -20 -20 -20 -20 -20 -20 -20 -20 -20 -20 -20 -20 -20 -20 -20 -20 -20 -20 -20 -20 -20 -20 -20 -20 -20 -20 -20 -20 -20 -20 -20 -20 -20 -20 -20 -20 -20 -20 -20 -20 -20 -20 -20 -20 -20 -20 -16
-20 -20 -20 -20 -20 -20 -20 -20 -20 -20 -20 -20 -20 -20 -20 -20 -20 -20 -20 -20 -20 -20 -20 -20 -20 -20 -20 -20 -20 -20 -20 -20 -20 -20 -20 -20 -20 -20 -20 -20 -20 -20 -20 -20 -20 -20 -20 -20 -20
-20 -20 -20 -20 -20 -20 -20 -20 -20 -20 -20 -20 -20 -20 -20 -20 -20 -20 -20 -20 -20 -20 -20 -20 -20 -20 -20 -20 -20 -20 -20 -20 -20 -20 -20 -20 -20 -20 -20 -20 -20 -20 -20 -20 -20 -20 -20 -20 -20
Wind_Speed
6 5 3 6 6 6 3 5 2 5 6 2 12 13 16 13 6 4 7 19 20 17 18 22 32 31 31 30 29 29 30 28 26 20 16 12 7 5 4 4 4 5 4 7 9 9 8 7 8
4 2 5 3 7 4 4 2 3 2 5 10 9 5 9 8 12 5 10 20 20 17 17 20 30 30 29 31 29 29 30 28 27 27 25 18 12 10 10 7 6 5 5 5 6 8 9 8 8
1 4 5 6 4 4 3 2 3 4 9 4 6 10 6 7 13 5 11 16 17 16 17 18 29 30 29 30 30 29 29 29 28 28 27 25 18 13 11 10 10 8 6 5 6 5 7 8 8
3 5 5 6 3 3 2 4 3 1 5 10 9 12 8 10 4 5 11 13 14 15 17 19 28 28 28 30 30 29 29 28 27 27 27 25 25 24 17 12 10 9 9 8 7 7 8 9 8
4 3 5 4 4 5 0 3 5 5 5 7 3 7 6 7 7 7 10 11 13 13 14 15 28 29 28 29 30 29 29 29 29 28 28 26 25 24 24 22 20 13 9 10 10 9 8 10 10
4 3 5 3 4 4 3 6 4 7 7 4 8 7 5 4 7 7 9 9 11 12 14 14 23 30 30 29 31 30 29 30 30 30 30 27 27 26 25 24 23 23 17 12 10 12 9 10 11
6 4 4 4 6 4 3 4 6 4 6 8 4 6 4 8 6 7 7 7 10 13 15 15 17 22 28 29 31 31 29 30 30 30 30 28 27 27 27 26 25 24 23 20 12 11 12 12 12
5 5 4 4 3 1 4 5 3 9 4 2 6 4 3 5 6 6 7 10 12 14 14 15 16 17 17 16 29 30 29 30 29 30 31 29 27 28 27 26 26 26 23 21 20 14 13 14 13
3 6 2 2 3 4 4 4 5 7 10 7 7 7 5 4 5 8 9 12 12 13 15 15 16 17 16 15 17 22 27 28 29 26 29 21 14 17 20 23 25 25 24 23 20 20 15 13 12
6 4 2 1 1 4 4 6 7 4 6 9 9 8 6 5 8 11 12 13 14 15 15 14 14 14 15 13 15 14 14 12 13 16 17 13 15 14 17 19 24 24 24 23 23 21 20 12 5
4 3 4 4 3 5 5 5 3 8 5 3 8 6 6 8 10 11 11 10 10 11 12 15 14 14 14 11 9 7 8 9 10 15 15 14 12 11 10 9 10 11 17 9 13 13 8 10 5
7 7 3 2 2 4 4 6 6 5 7 11 10 8 7 10 10 9 9 10 11 12 12 14 13 13 13 9 9 9 8 9 10 12 14 12 9 11 11 9 11 10 9 12 11 8 11 11 11
6 3 7 7 12 8 9 7 8 10 12 11 11 10 9 8 8 7 6 7 8 11 11 13 12 12 12 12 9 9 9 8 9 9 10 10 10 11 11 10 10 10 10 10 10 10 10 11 10
4 7 7 4 6 6 10 6 4 5 12 12 11 9 7 8 7 7 10 11 11 11 11 11 11 10 11 10 10 8 8 9 8 8 10 11 10 9 11 10 10 9 10 10 10 11 10 11 9
7 7 5 2 2 4 13 4 2 14 12 12 11 9 8 7 7 8 5 7 8 9 9 11 12 11 11 11 9 8 8 9 8 8 11 11 11 10 11 9 10 10 11 13 11 11 10 10 9
3 5 3 1 2 4 1 2 4 11 14 10 8 6 5 6 5 5 6 5 7 9 10 9 9 9 9 8 7 6 7 7 8 8 8 10 13 12 11 9 9 10 10 10 9 10 10 10 9
6 3 3 1 5 0 3 2 5 8 12 9 6 4 4 3 4 5 6 5 7 7 9 10 11 10 10 9 7 6 6 5 7 7 8 11 12 11 11 9 9 11 10 9 10 10 10 11 11
5 3 1 3 6 4 2 3 7 6 9 8 6 4 3 4 5 6 8 8 7 7 7 7 7 10 9 6 6 5 5 5 5 6 7 11 9 11 11 10 9 10 10 10 10 12 10 10 11
3 2 1 2 3 3 3 5 8 6 7 7 5 4 4 4 5 6 6 7 7 7 7 7 7 8 7 6 7 6 7 7 5 5 8 9 9 11 10 8 10 9 10 11 12 11 12 10 9
4 1 3 3 2 3 2 3 7 8 3 4 5 3 3 5 6 6 7 6 6 7 7 8 9 9 8 6 6 4 6 6 6 5 5 8 9 10 11 10 10 10 9 10 11 11 11 9 7
2 1 1 3 7 2 5 3 5 2 3 5 3 1 1 4 7 8 7 6 6 8 8 9 9 10 8 9 6 5 6 6 7 7 7 6 9 9 10 10 10 10 8 8 10 9 11 11 10
1 4 1 3 4 4 4 8 6 6 5 6 5 4 6 7 7 6 8 9 9 10 7 8 9 10 9 9 8 8 8 9 9 9 8 8 7 9 9 9 9 10 8 9 10 9 9 10 10
1 2 3 1 3 4 1 1 4 6 7 7 8 8 8 7 7 8 9 10 11 9 8 7 9 10 10 9 8 8 8 8 8 8 11 10 8 8 9 9 9 9 8 9 9 10 9 8 10
4 3 3 2 2 2 3 4 5 6 7 4 5 8 8 7 7 7 8 9 9 8 7 8 10 9 10 9 9 9 10 10 10 10 10 8 7 6 8 9 9 9 9 9 8 10 12 11 11
4 3 4 6 4 5 2 1 9 6 6 6 8 8 8 6 7 8 8 8 9 8 9 9 11 13 12 10 11 11 11 11 11 11 9 11 9 8 8 9 10 8 9 10 10 10 11 11 10
2 2 6 6 4 6 5 9 8 7 5 7 6 7 8 8 6 7 8 8 10 8 8 10 11 12 13 12 13 12 11 8 9 10 10 10 10 9 10 10 11 11 11 11 10 8 9 11 10
3 2 3 6 3 3 4 7 5 3 5 4 8 7 7 7 7 8 9 8 8 10 11 8 11 12 12 13 12 13 12 12 11 13 12 10 11 10 11 10 11 13 12 12 11 8 10 11 11
2 7 4 2 2 7 5 6 8 4 7 6 7 8 7 6 8 9 9 9 9 10 11 12 9 11 13 12 11 12 13 13 13 12 13 14 13 13 13 12 11 12 12 12 11 9 10 11 9
5 2 2 3 5 6 5 9 8 9 8 8 9 6 7 8 8 9 9 8 10 10 11 12 13 13 13 12 12 13 12 13 13 13 13 13 14 14 13 13 12 11 12 12 11 11 12 13 12
3 6 6 5 6 3 3 12 4 7 6 6 7 5 6 6 8 7 8 10 10 10 11 12 13 14 14 13 12 13 13 13 13 13 14 14 14 14 14 13 12 12 12 13 12 12 11 12 12
Wind_Direction
340 348 59 42 53 63 17 359 345 18 74 356 60 83 99 51 18 107 344 3 356 355 351 341 359 1 4 9 10 13 15 17 18 15 360 345 322 289 257 240 231 236 196 181 177 160 157 162 155
336 3 45 78 79 63 290 38 21 342 149 162 67 66 48 77 16 63 12 354 356 357 355 343 2 4 6 10 12 12 13 16 15 17 14 7 347 321 309 297 281 270 246 205 205 180 166 169 161
19 48 80 87 100 136 155 84 127 43 49 6 98 45 55 2 47 32 350 356 359 2 1 349 4 6 8 11 12 12 12 14 11 12 10 6 5 352 330 313 306 288 275 248 233 210 186 177 183
51 12 33 81 98 21 59 321 345 89 48 42 110 78 87 31 44 20 351 4 3 1 359 355 6 10 10 13 14 12 12 11 10 10 8 7 8 9 3 337 320 304 284 272 253 233 208 197 204
34 56 68 96 146 134 32 125 56 78 99 16 30 111 76 36 20 25 8 10 9 1 2 0 7 10 13 14 15 12 10 10 10 9 8 8 8 7 9 4 355 327 300 278 274 259 237 207 203
35 84 70 180 169 139 67 11 64 34 25 31 73 89 79 7 21 12 10 13 8 7 6 5 6 10 12 13 13 12 11 10 9 8 7 8 7 5 2 5 5 357 340 296 267 270 247 224 211
102 79 177 134 155 109 50 58 45 85 21 18 323 70 119 25 10 1 17 10 15 14 11 8 8 8 8 9 9 10 9 11 8 6 5 5 4 4 1 0 358 356 353 341 295 257 258 238 233
102 89 82 12 177 93 19 77 118 45 58 348 10 71 32 348 1 4 18 19 18 18 17 12 11 9 5 5 6 8 6 8 9 7 4 2 2 360 358 358 355 350 350 346 341 295 253 247 237
95 63 118 164 145 140 25 92 39 55 76 50 41 69 91 27 15 29 24 23 21 19 15 9 8 7 4 6 4 4 3 5 3 5 2 0 1 354 351 350 349 350 349 347 347 345 287 250 238
70 89 126 358 118 127 82 90 121 106 99 94 88 81 80 54 39 38 27 19 16 12 10 10 10 8 4 3 2 1 359 2 359 360 357 358 357 351 349 348 348 347 347 346 345 339 331 277 239
24 90 144 17 104 111 98 66 57 132 60 79 124 105 67 54 39 36 28 22 13 4 7 5 6 5 6 3 3 1 358 357 354 359 359 351 351 350 348 346 344 342 345 346 342 337 329 316 240
90 35 70 20 27 79 80 100 66 44 100 113 108 95 79 60 48 38 30 17 8 6 4 359 3 5 4 358 1 356 360 359 352 352 353 350 352 348 347 344 338 342 339 341 337 323 318 304 296
87 123 54 82 75 59 76 57 108 102 111 109 105 87 71 57 44 32 29 24 14 11 359 358 355 6 359 359 356 354 353 354 345 345 344 349 351 344 340 338 336 336 339 336 327 318 313 309 300
95 96 128 70 86 112 108 138 94 140 125 112 102 88 77 67 44 30 21 11 11 3 358 353 355 4 354 356 352 349 346 346 344 342 339 344 350 341 340 335 335 331 338 327 321 314 310 306 298
145 98 109 49 122 116 128 83 99 140 129 110 93 81 68 52 40 30 16 15 357 353 347 355 354 357 351 348 346 345 342 343 341 339 336 337 348 337 338 333 332 337 330 323 324 320 316 308 295
65 80 131 54 28 171 175 172 160 135 126 119 115 104 79 49 30 18 5 356 352 344 347 342 342 335 339 338 335 336 337 335 334 334 334 339 341 337 333 331 326 332 326 322 326 323 318 311 304
14 193 196 162 51 266 194 147 141 140 128 127 122 108 93 50 20 360 347 332 340 336 336 333 335 332 330 328 326 324 326 329 331 327 330 336 335 336 331 326 327 331 325 325 328 324 317 313 307
194 187 286 254 348 5 258 129 132 151 135 138 139 123 74 26 4 337 339 336 328 318 311 301 306 305 310 307 307 305 312 322 318 325 327 329 326 332 326 318 328 331 325 325 328 320 321 306 299
63 59 258 123 1 327 254 167 176 147 125 145 152 114 53 20 326 317 309 301 303 301 301 304 305 305 316 320 319 319 317 320 308 298 317 321 320 325 317 316 325 326 324 330 319 317 322 321 328
49 26 320 274 18 345 263 252 157 159 165 164 156 131 38 343 327 310 292 289 293 289 305 314 312 316 312 304 296 278 302 295 290 291 301 308 315 317 318 321 318 319 319 320 320 323 325 313 351
90 117 88 243 330 279 311 197 169 133 122 151 160 110 343 301 296 301 308 296 292 310 305 316 315 309 306 301 301 294 290 290 303 310 309 300 304 307 308 312 311 313 314 313 310 318 333 311 314
254 134 87 291 15 260 9 287 220 182 189 203 209 262 270 281 290 291 314 324 323 310 307 310 307 305 306 310 309 300 301 301 300 299 301 296 283 295 296 301 303 305 305 303 299 317 310 309 306
342 331 277 224 180 18 199 131 290 132 225 225 236 250 259 267 283 295 319 312 303 307 305 295 296 296 296 296 294 300 297 294 299 295 296 299 289 271 285 287 294 297 299 293 303 304 301 292 296
332 28 73 60 113 347 210 155 254 190 209 239 242 246 253 276 293 310 299 301 300 305 303 300 301 299 308 297 293 291 287 293 299 299 298 297 295 283 272 279 284 285 288 288 297 294 290 293 292
51 40 322 336 357 248 117 210 251 232 222 209 197 233 251 278 300 291 296 299 301 297 300 306 314 307 310 304 301 298 293 292 288 288 292 295 294 290 279 278 283 280 279 283 284 286 291 285 288
69 135 153 246 265 283 327 240 261 216 249 244 246 255 275 281 281 283 292 298 304 294 290 296 301 302 305 304 301 299 293 292 289 286 287 286 287 285 282 273 272 273 280 281 280 279 281 280 281
143 126 144 109 177 17 240 290 314 280 267 248 247 253 261 276 288 297 297 297 293 297 298 284 295 298 299 299 298 295 293 289 288 288 284 283 282 280 278 279 279 278 276 276 275 274 278 279 281
169 152 90 34 251 265 279 275 241 261 249 252 258 246 271 287 304 303 301 295 295 297 299 301 289 291 293 291 287 289 289 289 287 287 284 281 281 281 279 276 268 268 273 271 271 274 271 276 276
152 185 106 115 158 193 295 259 213 194 206 222 238 238 260 282 285 291 292 292 297 297 299 305 306 303 300 294 289 286 284 287 288 287 285 282 282 279 277 274 270 264 266 269 267 269 270 268 271
188 189 161 149 236 216 147 274 208 209 217 208 235 264 283 275 291 289 287 296 295 297 304 307 305 304 301 299 296 292 290 290 289 286 284 283 279 277 275 272 268 263 259 265 265 264 271 271 271